Terminal Aerodrome Forecast
Issued by NWS Amarillo, TX

Home | Current Version | Previous Version | Text Only | Print | Product List | Glossary On
Versions: 1 2 3 4 5 6 7 8 9 10 11 12 13 14 15 16
204
FTUS44 KAMA 031125
TAFDHT
TAF
KDHT 031125Z 0312/0412 32008KT P6SM SCT100
     FM031500 34015G25KT P6SM BKN070
     FM040000 36007KT P6SM SKC=

USA.gov is the U.S. government's official web portal to all federal, state and local government web resources and services.